Time,TemperatureF,DewpointF,PressureIn,WindDirection,WindDirectionDegrees,WindSpeedMPH,WindSpeedGustMPH,Humidity,HourlyPrecipIn,Conditions,Clouds,dailyrainin,SoftwareType,DateUTC
2013-10-01 00:00:00,56.7,49.5,29.83,SSW,196,1.0,9.0,77,0.00,,,0.00,meteohub,2013-10-01 05:00:00,
2013-10-01 00:06:00,56.7,49.5,29.83,SSW,193,2.0,9.0,77,0.00,,,0.00,meteohub,2013-10-01 05:06:00,
2013-10-01 00:11:00,56.7,49.5,29.83,South,182,4.0,9.0,77,0.00,,,0.00,meteohub,2013-10-01 05:11:00,
2013-10-01 00:16:00,56.3,49.1,29.83,South,184,5.0,9.0,77,0.00,,,0.00,meteohub,2013-10-01 05:16:00,
2013-10-01 00:21:00,56.1,49.3,29.83,South,175,6.0,9.0,78,0.00,,,0.00,meteohub,2013-10-01 05:21:00,
2013-10-01 00:26:00,55.9,49.1,29.83,South,188,5.0,10.0,78,0.00,,,0.00,meteohub,2013-10-01 05:26:00,
2013-10-01 00:31:00,55.8,49.3,29.83,South,182,5.0,10.0,79,0.00,,,0.00,meteohub,2013-10-01 05:31:00,
2013-10-01 00:37:00,55.8,49.3,29.83,South,181,5.0,10.0,79,0.00,,,0.00,meteohub,2013-10-01 05:37:00,
2013-10-01 00:42:00,55.8,49.3,29.83,South,184,7.0,10.0,79,0.00,,,0.00,meteohub,2013-10-01 05:42:00,
2013-10-01 00:47:00,55.6,49.1,29.83,South,184,6.0,10.0,79,0.00,,,0.00,meteohub,2013-10-01 05:47:00,
2013-10-01 00:52:00,55.4,49.3,29.83,South,190,5.0,10.0,80,0.00,,,0.00,meteohub,2013-10-01 05:52:00,
2013-10-01 00:57:00,55.2,49.1,29.83,South,183,1.0,10.0,80,0.00,,,0.00,meteohub,2013-10-01 05:57:00,
2013-10-01 01:02:00,55.2,49.5,29.83,South,190,9.0,9.0,81,0.00,,,0.00,meteohub,2013-10-01 06:02:00,
2013-10-01 01:07:00,55.4,49.6,29.83,South,188,3.0,9.0,81,0.00,,,0.00,meteohub,2013-10-01 06:07:00,
2013-10-01 01:12:00,55.6,49.8,29.83,South,186,0.0,9.0,81,0.00,,,0.00,meteohub,2013-10-01 06:12:00,
2013-10-01 01:17:00,55.8,49.6,29.83,South,180,2.0,9.0,80,0.00,,,0.00,meteohub,2013-10-01 06:17:00,
2013-10-01 01:22:00,55.8,49.6,29.83,South,183,3.0,9.0,80,0.00,,,0.00,meteohub,2013-10-01 06:22:00,
2013-10-01 01:27:00,55.6,49.8,29.83,South,185,6.0,9.0,81,0.00,,,0.00,meteohub,2013-10-01 06:27:00,
2013-10-01 01:32:00,55.6,49.8,29.83,South,180,5.0,9.0,81,0.00,,,0.00,meteohub,2013-10-01 06:32:00,
2013-10-01 01:37:00,55.6,49.8,29.83,South,188,2.0,9.0,81,0.00,,,0.00,meteohub,2013-10-01 06:37:00,
2013-10-01 01:42:00,55.6,49.8,29.83,South,188,3.0,9.0,81,0.00,,,0.00,meteohub,2013-10-01 06:42:00,
2013-10-01 01:47:00,55.6,50.2,29.83,South,190,4.0,9.0,82,0.00,,,0.00,meteohub,2013-10-01 06:47:00,
2013-10-01 01:52:00,55.6,50.2,29.83,South,173,6.0,10.0,82,0.00,,,0.00,meteohub,2013-10-01 06:52:00,
2013-10-01 01:57:00,55.8,50.4,29.83,SSW,198,3.0,12.0,82,0.00,,,0.00,meteohub,2013-10-01 06:57:00,
2013-10-01 02:02:00,55.9,50.5,29.83,South,178,9.0,12.0,82,0.00,,,0.00,meteohub,2013-10-01 07:02:00,
2013-10-01 02:07:00,55.9,50.5,29.83,South,190,6.0,12.0,82,0.00,,,0.00,meteohub,2013-10-01 07:07:00,
2013-10-01 02:12:00,55.9,50.5,29.83,South,185,7.0,10.0,82,0.00,,,0.00,meteohub,2013-10-01 07:12:00,
2013-10-01 02:18:00,56.1,50.7,29.83,South,184,4.0,11.0,82,0.00,,,0.00,meteohub,2013-10-01 07:18:00,
2013-10-01 02:23:00,56.1,50.7,29.83,South,178,8.0,11.0,82,0.00,,,0.00,meteohub,2013-10-01 07:23:00,
2013-10-01 02:28:00,56.3,50.9,29.83,SSE,157,4.0,11.0,82,0.00,,,0.00,meteohub,2013-10-01 07:28:00,
2013-10-01 02:35:00,56.3,50.9,29.83,South,184,4.0,10.0,82,0.00,,,0.00,meteohub,2013-10-01 07:35:00,
2013-10-01 02:40:00,56.1,50.7,29.83,South,190,3.0,11.0,82,0.00,,,0.00,meteohub,2013-10-01 07:40:00,
2013-10-01 02:45:00,56.1,50.7,29.83,South,182,6.0,11.0,82,0.00,,,0.00,meteohub,2013-10-01 07:45:00,
2013-10-01 02:50:00,56.1,51.1,29.83,South,182,6.0,11.0,83,0.00,,,0.00,meteohub,2013-10-01 07:50:00,
2013-10-01 02:56:00,56.1,51.1,29.83,South,179,2.0,11.0,83,0.00,,,0.00,meteohub,2013-10-01 07:56:00,
2013-10-01 03:02:00,55.9,50.9,29.83,SSW,192,6.0,11.0,83,0.00,,,0.00,meteohub,2013-10-01 08:02:00,
2013-10-01 03:07:00,55.9,50.9,29.83,South,184,5.0,11.0,83,0.00,,,0.00,meteohub,2013-10-01 08:07:00,
2013-10-01 03:12:00,55.9,51.3,29.83,South,191,9.0,11.0,84,0.00,,,0.00,meteohub,2013-10-01 08:12:00,
2013-10-01 03:17:00,55.9,51.3,29.82,South,181,4.0,11.0,84,0.00,,,0.00,meteohub,2013-10-01 08:17:00,
2013-10-01 03:22:00,55.9,51.3,29.82,South,188,7.0,11.0,84,0.00,,,0.00,meteohub,2013-10-01 08:22:00,
2013-10-01 03:27:00,55.8,51.1,29.82,South,182,6.0,11.0,84,0.00,,,0.00,meteohub,2013-10-01 08:27:00,
2013-10-01 03:33:00,55.8,51.3,29.82,South,181,3.0,10.0,85,0.00,,,0.00,meteohub,2013-10-01 08:33:00,
2013-10-01 03:38:00,55.8,51.3,29.82,South,188,4.0,10.0,85,0.00,,,0.00,meteohub,2013-10-01 08:38:00,
2013-10-01 03:43:00,55.8,51.3,29.82,South,182,7.0,11.0,85,0.00,,,0.00,meteohub,2013-10-01 08:43:00,
2013-10-01 03:48:00,55.8,51.3,29.82,South,180,1.0,11.0,85,0.00,,,0.00,meteohub,2013-10-01 08:48:00,
2013-10-01 03:53:00,55.8,51.3,29.82,South,175,4.0,11.0,85,0.00,,,0.00,meteohub,2013-10-01 08:53:00,
2013-10-01 03:59:00,55.8,51.6,29.82,South,184,3.0,9.0,86,0.00,,,0.00,meteohub,2013-10-01 08:59:00,
2013-10-01 04:04:00,55.8,51.6,29.82,South,184,3.0,11.0,86,0.00,,,0.00,meteohub,2013-10-01 09:04:00,
2013-10-01 04:10:00,55.9,51.8,29.82,SSW,196,7.0,11.0,86,0.00,,,0.00,meteohub,2013-10-01 09:10:00,
2013-10-01 04:15:00,55.8,51.6,29.82,SSW,198,5.0,13.0,86,0.00,,,0.00,meteohub,2013-10-01 09:15:00,
2013-10-01 04:20:00,55.8,52.0,29.82,South,179,1.0,13.0,87,0.00,,,0.00,meteohub,2013-10-01 09:20:00,
2013-10-01 04:25:00,55.8,52.0,29.82,South,175,4.0,11.0,87,0.00,,,0.00,meteohub,2013-10-01 09:25:00,
2013-10-01 04:31:00,55.6,51.8,29.82,South,180,3.0,11.0,87,0.00,,,0.00,meteohub,2013-10-01 09:31:00,
2013-10-01 04:36:00,55.4,51.6,29.82,South,180,3.0,11.0,87,0.00,,,0.00,meteohub,2013-10-01 09:36:00,
2013-10-01 04:41:00,55.2,51.8,29.82,South,190,9.0,11.0,88,0.00,,,0.00,meteohub,2013-10-01 09:41:00,
2013-10-01 04:46:00,55.0,51.6,29.82,SSW,196,6.0,12.0,88,0.00,,,0.00,meteohub,2013-10-01 09:46:00,
2013-10-01 04:52:00,55.0,51.8,29.82,South,180,9.0,12.0,89,0.00,,,0.00,meteohub,2013-10-01 09:52:00,
2013-10-01 04:57:00,55.0,51.8,29.82,South,191,4.0,12.0,89,0.00,,,0.00,meteohub,2013-10-01 09:57:00,
2013-10-01 05:02:00,55.0,51.8,29.83,South,176,9.0,12.0,89,0.00,,,0.00,meteohub,2013-10-01 10:02:00,
2013-10-01 05:07:00,54.9,52.0,29.83,South,190,5.0,11.0,90,0.00,,,0.00,meteohub,2013-10-01 10:07:00,
2013-10-01 05:12:00,55.0,52.2,29.83,South,173,8.0,11.0,90,0.00,,,0.00,meteohub,2013-10-01 10:12:00,
2013-10-01 05:17:00,54.9,52.0,29.82,South,187,8.0,11.0,90,0.00,,,0.00,meteohub,2013-10-01 10:17:00,
2013-10-01 05:22:00,54.9,52.0,29.82,South,170,7.0,10.0,90,0.00,,,0.00,meteohub,2013-10-01 10:22:00,
2013-10-01 05:27:00,54.9,52.3,29.82,SSW,200,5.0,10.0,91,0.00,,,0.00,meteohub,2013-10-01 10:27:00,
2013-10-01 05:32:00,54.9,52.3,29.82,South,184,6.0,11.0,91,0.00,,,0.00,meteohub,2013-10-01 10:32:00,
2013-10-01 05:37:00,54.9,52.3,29.82,South,186,3.0,11.0,91,0.00,,,0.00,meteohub,2013-10-01 10:37:00,
2013-10-01 05:42:00,54.9,52.3,29.82,SSE,161,5.0,11.0,91,0.00,,,0.00,meteohub,2013-10-01 10:42:00,
2013-10-01 05:48:00,55.0,52.7,29.82,South,186,6.0,11.0,92,0.00,,,0.00,meteohub,2013-10-01 10:48:00,
2013-10-01 05:53:00,55.0,52.7,29.82,South,190,7.0,12.0,92,0.00,,,0.00,meteohub,2013-10-01 10:53:00,
2013-10-01 05:59:00,55.0,52.7,29.82,SSW,194,6.0,12.0,92,0.00,,,0.00,meteohub,2013-10-01 10:59:00,
2013-10-01 06:05:00,55.0,52.7,29.82,SSW,198,7.0,11.0,92,0.00,,,0.00,meteohub,2013-10-01 11:05:00,
2013-10-01 06:11:00,55.0,53.1,29.82,South,184,5.0,13.0,93,0.00,,,0.00,meteohub,2013-10-01 11:11:00,
2013-10-01 06:16:00,55.2,53.2,29.82,South,190,1.0,13.0,93,0.00,,,0.00,meteohub,2013-10-01 11:16:00,
2013-10-01 06:21:00,55.2,53.2,29.82,SSW,203,8.0,13.0,93,0.00,,,0.00,meteohub,2013-10-01 11:21:00,
2013-10-01 06:26:00,55.2,53.2,29.82,South,179,4.0,12.0,93,0.00,,,0.00,meteohub,2013-10-01 11:26:00,
2013-10-01 06:32:00,55.2,53.2,29.83,South,186,6.0,11.0,93,0.00,,,0.00,meteohub,2013-10-01 11:32:00,
2013-10-01 06:37:00,55.4,53.4,29.82,SSW,194,3.0,11.0,93,0.00,,,0.00,meteohub,2013-10-01 11:37:00,
2013-10-01 06:42:00,55.4,53.8,29.82,South,184,1.0,11.0,94,0.00,,,0.00,meteohub,2013-10-01 11:42:00,
2013-10-01 06:47:00,55.4,53.8,29.82,South,185,1.0,11.0,94,0.00,,,0.00,meteohub,2013-10-01 11:47:00,
2013-10-01 06:52:00,55.6,54.0,29.82,South,185,5.0,10.0,94,0.00,,,0.00,meteohub,2013-10-01 11:52:00,
2013-10-01 06:58:00,55.6,54.0,29.83,South,186,3.0,9.0,94,0.00,,,0.00,meteohub,2013-10-01 11:58:00,
2013-10-01 07:03:00,55.6,54.0,29.83,SSW,202,4.0,9.0,94,0.00,,,0.00,meteohub,2013-10-01 12:03:00,
2013-10-01 07:08:00,55.8,54.1,29.83,SSW,196,1.0,9.0,94,0.00,,,0.00,meteohub,2013-10-01 12:08:00,
2013-10-01 07:15:00,55.9,54.3,29.83,SSW,208,3.0,9.0,94,0.00,,,0.00,meteohub,2013-10-01 12:15:00,
2013-10-01 07:20:00,56.1,54.7,29.83,SSW,194,5.0,10.0,95,0.00,,,0.00,meteohub,2013-10-01 12:20:00,
2013-10-01 07:25:00,56.5,55.0,29.83,South,173,3.0,10.0,95,0.00,,,0.00,meteohub,2013-10-01 12:25:00,
2013-10-01 07:31:00,56.7,55.0,29.83,SSW,202,4.0,10.0,94,0.00,,,0.00,meteohub,2013-10-01 12:31:00,
2013-10-01 07:36:00,56.8,55.4,29.83,South,191,2.0,9.0,95,0.00,,,0.00,meteohub,2013-10-01 12:36:00,
2013-10-01 07:41:00,57.0,55.6,29.83,SSW,198,4.0,12.0,95,0.00,,,0.00,meteohub,2013-10-01 12:41:00,
2013-10-01 07:47:00,57.6,55.8,29.83,South,184,7.0,12.0,94,0.00,,,0.00,meteohub,2013-10-01 12:47:00,
2013-10-01 07:52:00,57.7,55.9,29.83,SSW,196,7.0,10.0,94,0.00,,,0.00,meteohub,2013-10-01 12:52:00,
2013-10-01 07:57:00,58.3,56.5,29.83,SSW,204,10.0,10.0,94,0.00,,,0.00,meteohub,2013-10-01 12:57:00,
2013-10-01 08:03:00,58.6,56.8,29.83,SSW,196,6.0,12.0,94,0.00,,,0.00,meteohub,2013-10-01 13:03:00,
2013-10-01 08:08:00,59.2,57.4,29.83,South,173,5.0,13.0,94,0.00,,,0.00,meteohub,2013-10-01 13:08:00,
2013-10-01 08:13:00,59.5,57.6,29.82,South,187,6.0,18.0,93,0.00,,,0.00,meteohub,2013-10-01 13:13:00,
2013-10-01 08:19:00,59.9,57.9,29.82,South,189,6.0,18.0,93,0.00,,,0.00,meteohub,2013-10-01 13:19:00,
2013-10-01 08:25:00,60.3,57.9,29.82,SSW,205,11.0,15.0,92,0.00,,,0.00,meteohub,2013-10-01 13:25:00,
2013-10-01 08:31:00,60.6,57.9,29.82,South,172,7.0,15.0,91,0.00,,,0.00,meteohub,2013-10-01 13:31:00,
2013-10-01 08:36:00,61.2,58.5,29.82,South,190,10.0,15.0,91,0.00,,,0.00,meteohub,2013-10-01 13:36:00,
2013-10-01 08:41:00,61.5,58.6,29.82,SSW,200,7.0,14.0,90,0.00,,,0.00,meteohub,2013-10-01 13:41:00,
2013-10-01 08:47:00,61.9,59.0,29.82,SSW,198,12.0,14.0,90,0.00,,,0.00,meteohub,2013-10-01 13:47:00,
2013-10-01 08:52:00,62.2,59.0,29.82,South,180,8.0,14.0,89,0.00,,,0.00,meteohub,2013-10-01 13:52:00,
2013-10-01 08:57:00,62.6,59.0,29.81,SSW,197,11.0,16.0,88,0.00,,,0.00,meteohub,2013-10-01 13:57:00,
2013-10-01 09:02:00,63.0,59.4,29.81,South,184,12.0,17.0,88,0.00,,,0.00,meteohub,2013-10-01 14:02:00,
2013-10-01 09:07:00,63.3,59.4,29.81,South,188,3.0,17.0,87,0.00,,,0.00,meteohub,2013-10-01 14:07:00,
2013-10-01 09:12:00,63.9,59.5,29.81,South,188,10.0,20.0,86,0.00,,,0.00,meteohub,2013-10-01 14:12:00,
2013-10-01 09:18:00,64.2,59.9,29.81,SSW,200,7.0,20.0,86,0.00,,,0.00,meteohub,2013-10-01 14:18:00,
2013-10-01 09:23:00,64.8,60.1,29.81,SSW,210,6.0,20.0,85,0.00,,,0.00,meteohub,2013-10-01 14:23:00,
2013-10-01 09:28:00,65.1,60.4,29.81,SSW,203,11.0,19.0,85,0.00,,,0.00,meteohub,2013-10-01 14:28:00,
2013-10-01 09:34:00,65.5,60.4,29.81,SSW,195,11.0,16.0,84,0.00,,,0.00,meteohub,2013-10-01 14:34:00,
2013-10-01 09:39:00,65.8,60.6,29.81,SSW,192,12.0,16.0,83,0.00,,,0.00,meteohub,2013-10-01 14:39:00,
2013-10-01 09:44:00,66.4,61.0,29.81,South,191,8.0,16.0,83,0.00,,,0.00,meteohub,2013-10-01 14:44:00,
2013-10-01 09:49:00,66.9,61.2,29.81,SSW,194,16.0,17.0,82,0.00,,,0.00,meteohub,2013-10-01 14:49:00,
2013-10-01 09:55:00,67.3,61.2,29.81,South,171,9.0,17.0,81,0.00,,,0.00,meteohub,2013-10-01 14:55:00,
2013-10-01 10:00:00,67.5,61.2,29.81,South,186,11.0,17.0,80,0.00,,,0.00,meteohub,2013-10-01 15:00:00,
2013-10-01 10:06:00,68.2,61.7,29.81,South,173,6.0,18.0,80,0.00,,,0.00,meteohub,2013-10-01 15:06:00,
2013-10-01 10:11:00,68.5,61.3,29.81,South,187,13.0,18.0,78,0.00,,,0.00,meteohub,2013-10-01 15:11:00,
2013-10-01 10:16:00,68.9,61.7,29.81,SSW,202,12.0,16.0,78,0.00,,,0.00,meteohub,2013-10-01 15:16:00,
2013-10-01 10:22:00,69.3,62.1,29.81,SW,214,9.0,17.0,78,0.00,,,0.00,meteohub,2013-10-01 15:22:00,
2013-10-01 10:27:00,69.4,61.5,29.81,SSW,193,9.0,17.0,76,0.00,,,0.00,meteohub,2013-10-01 15:27:00,
2013-10-01 10:32:00,69.6,61.7,29.80,South,189,6.0,19.0,76,0.00,,,0.00,meteohub,2013-10-01 15:32:00,
2013-10-01 10:37:00,70.0,62.1,29.80,SSW,207,10.0,19.0,76,0.00,,,0.00,meteohub,2013-10-01 15:37:00,
2013-10-01 10:42:00,70.2,61.5,29.80,SSW,192,5.0,21.0,74,0.00,,,0.00,meteohub,2013-10-01 15:42:00,
2013-10-01 10:47:00,70.7,62.1,29.80,SW,215,7.0,21.0,74,0.00,,,0.00,meteohub,2013-10-01 15:47:00,
2013-10-01 10:52:00,71.1,61.5,29.80,SSW,213,13.0,18.0,72,0.00,,,0.00,meteohub,2013-10-01 15:52:00,
2013-10-01 10:58:00,71.2,61.7,29.80,SSW,194,7.0,21.0,72,0.00,,,0.00,meteohub,2013-10-01 15:58:00,
2013-10-01 11:03:00,71.8,62.2,29.80,SSW,198,9.0,21.0,72,0.00,,,0.00,meteohub,2013-10-01 16:03:00,
2013-10-01 11:10:00,71.8,61.9,29.80,SSW,208,13.0,21.0,71,0.00,,,0.00,meteohub,2013-10-01 16:10:00,
2013-10-01 11:15:00,72.1,62.6,29.81,SSW,205,11.0,18.0,72,0.00,,,0.00,meteohub,2013-10-01 16:15:00,
2013-10-01 11:20:00,72.3,62.4,29.80,SW,215,4.0,18.0,71,0.00,,,0.00,meteohub,2013-10-01 16:20:00,
2013-10-01 11:25:00,72.5,61.7,29.80,SW,221,6.0,18.0,69,0.00,,,0.00,meteohub,2013-10-01 16:25:00,
2013-10-01 11:31:00,72.7,62.2,29.80,SSW,205,8.0,18.0,70,0.00,,,0.00,meteohub,2013-10-01 16:31:00,
2013-10-01 11:36:00,72.7,61.9,29.80,SSW,194,13.0,18.0,69,0.00,,,0.00,meteohub,2013-10-01 16:36:00,
2013-10-01 11:41:00,72.9,62.4,29.81,SSW,211,6.0,18.0,70,0.00,,,0.00,meteohub,2013-10-01 16:41:00,
2013-10-01 11:47:00,73.0,62.2,29.81,SW,225,9.0,18.0,69,0.00,,,0.00,meteohub,2013-10-01 16:47:00,
2013-10-01 11:52:00,73.6,63.1,29.81,SW,218,9.0,18.0,70,0.00,,,0.00,meteohub,2013-10-01 16:52:00,
2013-10-01 11:57:00,73.8,63.0,29.81,SSW,196,13.0,18.0,69,0.00,,,0.00,meteohub,2013-10-01 16:57:00,
2013-10-01 12:02:00,74.7,63.3,29.81,SW,223,7.0,17.0,68,0.00,,,0.00,meteohub,2013-10-01 17:02:00,
2013-10-01 12:08:00,74.7,62.6,29.81,SSW,204,8.0,17.0,66,0.00,,,0.00,meteohub,2013-10-01 17:08:00,
2013-10-01 12:13:00,74.5,62.4,29.80,SW,229,12.0,17.0,66,0.00,,,0.00,meteohub,2013-10-01 17:13:00,
2013-10-01 12:18:00,74.7,62.1,29.80,SW,234,13.0,18.0,65,0.00,,,0.00,meteohub,2013-10-01 17:18:00,
2013-10-01 12:24:00,74.7,62.1,29.80,SW,235,13.0,18.0,65,0.00,,,0.00,meteohub,2013-10-01 17:24:00,
2013-10-01 12:29:00,74.8,62.8,29.80,SW,232,9.0,22.0,66,0.00,,,0.00,meteohub,2013-10-01 17:29:00,
2013-10-01 12:34:00,75.2,63.1,29.80,SW,233,10.0,22.0,66,0.00,,,0.00,meteohub,2013-10-01 17:34:00,
2013-10-01 12:39:00,75.4,62.8,29.81,SSW,203,8.0,22.0,65,0.00,,,0.00,meteohub,2013-10-01 17:39:00,
2013-10-01 12:45:00,75.6,63.0,29.80,SW,221,10.0,19.0,65,0.00,,,0.00,meteohub,2013-10-01 17:45:00,
2013-10-01 12:50:00,75.7,63.1,29.81,SW,231,13.0,19.0,65,0.00,,,0.00,meteohub,2013-10-01 17:50:00,
2013-10-01 12:55:00,75.9,63.3,29.80,SSW,212,7.0,21.0,65,0.00,,,0.00,meteohub,2013-10-01 17:55:00,
2013-10-01 13:00:00,76.5,63.3,29.80,SSW,213,8.0,21.0,64,0.00,,,0.00,meteohub,2013-10-01 18:00:00,
2013-10-01 13:06:00,76.6,63.1,29.80,SW,221,8.0,16.0,63,0.00,,,0.00,meteohub,2013-10-01 18:06:00,
2013-10-01 13:11:00,76.8,63.3,29.81,SW,219,9.0,16.0,63,0.00,,,0.00,meteohub,2013-10-01 18:11:00,
2013-10-01 13:16:00,76.8,63.3,29.81,SW,221,6.0,17.0,63,0.00,,,0.00,meteohub,2013-10-01 18:16:00,
2013-10-01 13:22:00,77.0,63.0,29.80,SW,220,5.0,17.0,62,0.00,,,0.00,meteohub,2013-10-01 18:22:00,
2013-10-01 13:27:00,77.7,64.0,29.80,SW,215,10.0,17.0,63,0.00,,,0.00,meteohub,2013-10-01 18:27:00,
2013-10-01 13:32:00,78.1,63.5,29.80,SW,223,6.0,16.0,61,0.00,,,0.00,meteohub,2013-10-01 18:32:00,
2013-10-01 13:37:00,78.1,63.1,29.80,SW,221,13.0,16.0,60,0.00,,,0.00,meteohub,2013-10-01 18:37:00,
2013-10-01 13:42:00,77.9,63.3,29.80,WSW,238,8.0,16.0,61,0.00,,,0.00,meteohub,2013-10-01 18:42:00,
2013-10-01 13:47:00,78.3,63.3,29.80,SW,232,7.0,16.0,60,0.00,,,0.00,meteohub,2013-10-01 18:47:00,
2013-10-01 13:53:00,78.3,64.2,29.80,WSW,244,5.0,16.0,62,0.00,,,0.00,meteohub,2013-10-01 18:53:00,
2013-10-01 13:58:00,78.4,63.0,29.80,SSW,200,7.0,16.0,59,0.00,,,0.00,meteohub,2013-10-01 18:58:00,
2013-10-01 14:03:00,78.1,62.6,29.80,SW,235,8.0,18.0,59,0.00,,,0.00,meteohub,2013-10-01 19:03:00,
2013-10-01 14:08:00,78.4,63.0,29.80,SW,219,5.0,18.0,59,0.00,,,0.00,meteohub,2013-10-01 19:08:00,
2013-10-01 14:14:00,78.6,63.5,29.80,SW,214,5.0,18.0,60,0.00,,,0.00,meteohub,2013-10-01 19:14:00,
2013-10-01 14:19:00,79.2,64.6,29.80,SSW,207,7.0,16.0,61,0.00,,,0.00,meteohub,2013-10-01 19:19:00,
2013-10-01 14:24:00,79.3,63.7,29.79,SW,225,5.0,14.0,59,0.00,,,0.00,meteohub,2013-10-01 19:24:00,
2013-10-01 14:29:00,79.3,63.3,29.79,SW,227,8.0,17.0,58,0.00,,,0.00,meteohub,2013-10-01 19:29:00,
2013-10-01 14:35:00,79.3,63.7,29.80,SW,219,6.0,17.0,59,0.00,,,0.00,meteohub,2013-10-01 19:35:00,
2013-10-01 14:40:00,79.3,63.3,29.80,SW,225,6.0,15.0,58,0.00,,,0.00,meteohub,2013-10-01 19:40:00,
2013-10-01 14:45:00,79.9,64.2,29.80,SW,225,7.0,15.0,59,0.00,,,0.00,meteohub,2013-10-01 19:45:00,
2013-10-01 14:50:00,80.1,63.0,29.80,SW,219,9.0,13.0,56,0.00,,,0.00,meteohub,2013-10-01 19:50:00,
2013-10-01 14:56:00,79.9,62.8,29.80,SSW,210,3.0,13.0,56,0.00,,,0.00,meteohub,2013-10-01 19:56:00,
2013-10-01 15:01:00,79.7,63.1,29.80,SSW,213,6.0,16.0,57,0.00,,,0.00,meteohub,2013-10-01 20:01:00,
2013-10-01 15:06:00,79.7,63.7,29.80,SSW,212,3.0,16.0,58,0.00,,,0.00,meteohub,2013-10-01 20:06:00,
2013-10-01 15:12:00,79.9,63.9,29.80,SW,219,9.0,15.0,58,0.00,,,0.00,meteohub,2013-10-01 20:12:00,
2013-10-01 15:17:00,80.1,63.9,29.80,SW,217,5.0,15.0,58,0.00,,,0.00,meteohub,2013-10-01 20:17:00,
2013-10-01 15:22:00,80.2,63.1,29.80,WSW,238,1.0,11.0,56,0.00,,,0.00,meteohub,2013-10-01 20:22:00,
2013-10-01 15:27:00,79.9,62.8,29.80,SW,229,4.0,10.0,56,0.00,,,0.00,meteohub,2013-10-01 20:27:00,
2013-10-01 15:32:00,79.5,62.4,29.80,SW,234,7.0,14.0,56,0.00,,,0.00,meteohub,2013-10-01 20:32:00,
2013-10-01 15:37:00,79.3,62.8,29.80,SW,236,3.0,14.0,57,0.00,,,0.00,meteohub,2013-10-01 20:37:00,
2013-10-01 15:42:00,79.3,62.8,29.80,SW,227,4.0,13.0,57,0.00,,,0.00,meteohub,2013-10-01 20:42:00,
2013-10-01 15:47:00,79.3,62.2,29.80,WSW,257,5.0,13.0,56,0.00,,,0.00,meteohub,2013-10-01 20:47:00,
2013-10-01 15:52:00,79.3,62.2,29.80,WSW,245,7.0,13.0,56,0.00,,,0.00,meteohub,2013-10-01 20:52:00,
2013-10-01 15:57:00,79.2,62.1,29.80,SW,222,2.0,12.0,56,0.00,,,0.00,meteohub,2013-10-01 20:57:00,
2013-10-01 16:02:00,79.2,62.1,29.80,SW,232,2.0,12.0,56,0.00,,,0.00,meteohub,2013-10-01 21:02:00,
2013-10-01 16:07:00,79.2,62.1,29.81,SW,229,4.0,12.0,56,0.00,,,0.00,meteohub,2013-10-01 21:07:00,
2013-10-01 16:13:00,79.0,61.9,29.80,WSW,253,6.0,12.0,56,0.00,,,0.00,meteohub,2013-10-01 21:13:00,
2013-10-01 16:18:00,79.2,62.6,29.81,WSW,242,4.0,12.0,57,0.00,,,0.00,meteohub,2013-10-01 21:18:00,
2013-10-01 16:23:00,79.3,62.8,29.81,SSW,204,7.0,10.0,57,0.00,,,0.00,meteohub,2013-10-01 21:23:00,
2013-10-01 16:29:00,79.0,62.4,29.81,SW,221,3.0,10.0,57,0.00,,,0.00,meteohub,2013-10-01 21:29:00,
2013-10-01 16:34:00,78.6,62.1,29.81,SSW,200,4.0,11.0,57,0.00,,,0.00,meteohub,2013-10-01 21:34:00,
2013-10-01 16:39:00,78.6,62.6,29.81,SSW,209,6.0,11.0,58,0.00,,,0.00,meteohub,2013-10-01 21:39:00,
2013-10-01 16:45:00,78.6,62.6,29.81,SW,227,3.0,11.0,58,0.00,,,0.00,meteohub,2013-10-01 21:45:00,
2013-10-01 16:50:00,78.4,62.4,29.81,SSW,197,1.0,12.0,58,0.00,,,0.00,meteohub,2013-10-01 21:50:00,
2013-10-01 16:55:00,78.3,62.2,29.81,SW,216,5.0,12.0,58,0.00,,,0.00,meteohub,2013-10-01 21:55:00,
2013-10-01 17:01:00,78.3,62.8,29.81,SW,226,5.0,12.0,59,0.00,,,0.00,meteohub,2013-10-01 22:01:00,
2013-10-01 17:06:00,77.9,63.0,29.82,SW,218,2.0,9.0,60,0.00,,,0.00,meteohub,2013-10-01 22:06:00,
2013-10-01 17:11:00,77.7,62.8,29.82,SW,221,4.0,11.0,60,0.00,,,0.00,meteohub,2013-10-01 22:11:00,
2013-10-01 17:17:00,77.5,62.6,29.82,SW,229,5.0,11.0,60,0.00,,,0.00,meteohub,2013-10-01 22:17:00,
2013-10-01 17:22:00,77.4,62.8,29.82,SW,226,8.0,11.0,61,0.00,,,0.00,meteohub,2013-10-01 22:22:00,
2013-10-01 17:27:00,77.0,62.6,29.82,SW,220,4.0,10.0,61,0.00,,,0.00,meteohub,2013-10-01 22:27:00,
2013-10-01 17:32:00,76.8,62.4,29.82,SW,229,0.0,9.0,61,0.00,,,0.00,meteohub,2013-10-01 22:32:00,
2013-10-01 17:38:00,76.5,62.4,29.83,SW,225,0.0,10.0,62,0.00,,,0.00,meteohub,2013-10-01 22:38:00,
2013-10-01 17:43:00,76.3,62.8,29.83,SW,229,0.0,10.0,63,0.00,,,0.00,meteohub,2013-10-01 22:43:00,
2013-10-01 17:48:00,75.9,62.8,29.83,SW,230,1.0,10.0,64,0.00,,,0.00,meteohub,2013-10-01 22:48:00,
2013-10-01 17:53:00,75.7,63.1,29.83,SW,227,5.0,8.0,65,0.00,,,0.00,meteohub,2013-10-01 22:53:00,
2013-10-01 17:59:00,75.4,63.1,29.83,SW,226,0.0,7.0,66,0.00,,,0.00,meteohub,2013-10-01 22:59:00,
2013-10-01 18:04:00,74.8,63.1,29.83,SW,226,0.0,7.0,67,0.00,,,0.00,meteohub,2013-10-01 23:04:00,
2013-10-01 18:09:00,74.5,63.1,29.83,SW,226,0.0,6.0,68,0.00,,,0.00,meteohub,2013-10-01 23:09:00,
2013-10-01 18:14:00,73.8,62.6,29.83,SW,226,0.0,3.0,68,0.00,,,0.00,meteohub,2013-10-01 23:14:00,
2013-10-01 18:20:00,73.0,62.6,29.83,SW,226,0.0,2.0,70,0.00,,,0.00,meteohub,2013-10-01 23:20:00,
2013-10-01 18:26:00,72.1,62.2,29.84,SW,226,0.0,1.0,71,0.00,,,0.00,meteohub,2013-10-01 23:26:00,
2013-10-01 18:30:00,71.4,61.9,29.84,SW,226,0.0,1.0,72,0.00,,,0.00,meteohub,2013-10-01 23:30:00,
2013-10-01 18:35:00,70.5,61.5,29.84,SW,226,0.0,1.0,73,0.00,,,0.00,meteohub,2013-10-01 23:35:00,
2013-10-01 18:40:00,69.8,61.2,29.84,SW,226,0.0,1.0,74,0.00,,,0.00,meteohub,2013-10-01 23:40:00,
2013-10-01 18:45:00,69.1,60.8,29.84,SW,226,0.0,1.0,75,0.00,,,0.00,meteohub,2013-10-01 23:45:00,
2013-10-01 18:51:00,68.4,60.4,29.84,SW,226,0.0,1.0,76,0.00,,,0.00,meteohub,2013-10-01 23:51:00,
2013-10-01 18:56:00,67.6,60.3,29.84,SW,226,0.0,0.0,77,0.00,,,0.00,meteohub,2013-10-01 23:56:00,
2013-10-01 19:01:00,66.9,59.9,29.85,SW,226,0.0,0.0,78,0.00,,,0.00,meteohub,2013-10-02 00:01:00,
2013-10-01 19:06:00,66.0,59.7,29.85,SW,226,0.0,0.0,80,0.00,,,0.00,meteohub,2013-10-02 00:06:00,
2013-10-01 19:11:00,65.3,59.4,29.85,SW,226,0.0,1.0,81,0.00,,,0.00,meteohub,2013-10-02 00:11:00,
2013-10-01 19:17:00,64.8,59.2,29.85,SW,226,0.0,1.0,82,0.00,,,0.00,meteohub,2013-10-02 00:17:00,
2013-10-01 19:22:00,64.4,59.2,29.86,SW,226,0.0,1.0,83,0.00,,,0.00,meteohub,2013-10-02 00:22:00,
2013-10-01 19:27:00,64.0,59.2,29.86,SW,226,0.0,0.0,84,0.00,,,0.00,meteohub,2013-10-02 00:27:00,
2013-10-01 19:32:00,63.7,59.0,29.86,SW,226,0.0,0.0,85,0.00,,,0.00,meteohub,2013-10-02 00:32:00,
2013-10-01 19:37:00,63.3,58.8,29.86,SW,226,0.0,0.0,85,0.00,,,0.00,meteohub,2013-10-02 00:37:00,
2013-10-01 19:42:00,63.1,58.8,29.86,SW,226,0.0,1.0,86,0.00,,,0.00,meteohub,2013-10-02 00:42:00,
2013-10-01 19:47:00,62.8,58.5,29.87,SW,226,0.0,1.0,86,0.00,,,0.00,meteohub,2013-10-02 00:47:00,
2013-10-01 19:52:00,62.6,58.6,29.87,SW,226,0.0,1.0,87,0.00,,,0.00,meteohub,2013-10-02 00:52:00,
2013-10-01 19:57:00,62.4,58.5,29.87,SW,226,0.0,1.0,87,0.00,,,0.00,meteohub,2013-10-02 00:57:00,
2013-10-01 20:02:00,62.2,58.3,29.87,SW,226,0.0,1.0,87,0.00,,,0.00,meteohub,2013-10-02 01:02:00,
2013-10-01 20:07:00,62.2,58.6,29.87,SW,226,0.0,1.0,88,0.00,,,0.00,meteohub,2013-10-02 01:07:00,
2013-10-01 20:12:00,62.2,58.6,29.88,SW,226,0.0,1.0,88,0.00,,,0.00,meteohub,2013-10-02 01:12:00,
2013-10-01 20:17:00,62.2,58.6,29.88,SW,226,0.0,1.0,88,0.00,,,0.00,meteohub,2013-10-02 01:17:00,
2013-10-01 20:22:00,62.8,59.2,29.88,SW,226,2.0,2.0,88,0.00,,,0.00,meteohub,2013-10-02 01:22:00,
2013-10-01 20:27:00,63.7,59.7,29.88,SW,226,2.0,4.0,87,0.00,,,0.00,meteohub,2013-10-02 01:27:00,
2013-10-01 20:32:00,63.9,59.2,29.88,SW,226,3.0,4.0,85,0.00,,,0.00,meteohub,2013-10-02 01:32:00,
2013-10-01 20:37:00,63.9,59.2,29.88,SW,226,3.0,4.0,85,0.00,,,0.00,meteohub,2013-10-02 01:37:00,
2013-10-01 20:42:00,64.0,59.2,29.88,SW,226,2.0,4.0,84,0.00,,,0.00,meteohub,2013-10-02 01:42:00,
2013-10-01 20:47:00,63.9,58.6,29.88,SW,226,2.0,5.0,83,0.00,,,0.00,meteohub,2013-10-02 01:47:00,
2013-10-01 20:52:00,63.9,58.6,29.89,SW,226,2.0,5.0,83,0.00,,,0.00,meteohub,2013-10-02 01:52:00,
2013-10-01 20:57:00,63.7,58.5,29.89,SW,226,0.0,4.0,83,0.00,,,0.00,meteohub,2013-10-02 01:57:00,
2013-10-01 21:02:00,63.1,57.9,29.89,SW,226,0.0,4.0,83,0.00,,,0.00,meteohub,2013-10-02 02:02:00,
2013-10-01 21:07:00,62.8,57.6,29.89,SW,226,0.0,3.0,83,0.00,,,0.00,meteohub,2013-10-02 02:07:00,
2013-10-01 21:12:00,62.2,57.4,29.89,SW,226,0.0,3.0,84,0.00,,,0.00,meteohub,2013-10-02 02:12:00,
2013-10-01 21:17:00,61.9,57.0,29.90,SW,226,1.0,3.0,84,0.00,,,0.00,meteohub,2013-10-02 02:17:00,
2013-10-01 21:22:00,61.5,57.0,29.90,SW,226,0.0,1.0,85,0.00,,,0.00,meteohub,2013-10-02 02:22:00,
2013-10-01 21:27:00,61.3,57.2,29.90,SW,226,0.0,2.0,86,0.00,,,0.00,meteohub,2013-10-02 02:27:00,
2013-10-01 21:32:00,61.3,56.8,29.90,SW,226,0.0,2.0,85,0.00,,,0.00,meteohub,2013-10-02 02:32:00,
2013-10-01 21:38:00,61.3,56.8,29.90,SW,226,1.0,1.0,85,0.00,,,0.00,meteohub,2013-10-02 02:38:00,
2013-10-01 21:43:00,61.5,56.7,29.90,SW,226,0.0,2.0,84,0.00,,,0.00,meteohub,2013-10-02 02:43:00,
2013-10-01 21:48:00,61.5,56.3,29.91,SW,226,0.0,2.0,83,0.00,,,0.00,meteohub,2013-10-02 02:48:00,
2013-10-01 21:53:00,61.3,56.1,29.91,SW,226,0.0,2.0,83,0.00,,,0.00,meteohub,2013-10-02 02:53:00,
2013-10-01 21:58:00,61.0,55.8,29.91,SW,226,0.0,2.0,83,0.00,,,0.00,meteohub,2013-10-02 02:58:00,
2013-10-01 22:03:00,60.6,55.4,29.91,SW,226,0.0,2.0,83,0.00,,,0.00,meteohub,2013-10-02 03:03:00,
2013-10-01 22:09:00,60.4,55.6,29.91,SW,226,0.0,1.0,84,0.00,,,0.00,meteohub,2013-10-02 03:09:00,
2013-10-01 22:14:00,60.4,55.2,29.91,SW,226,0.0,1.0,83,0.00,,,0.00,meteohub,2013-10-02 03:14:00,
2013-10-01 22:19:00,60.1,54.9,29.91,SW,226,1.0,1.0,83,0.00,,,0.00,meteohub,2013-10-02 03:19:00,
2013-10-01 22:24:00,59.9,54.7,29.91,SW,226,0.0,3.0,83,0.00,,,0.00,meteohub,2013-10-02 03:24:00,
2013-10-01 22:30:00,59.7,54.5,29.92,SW,226,0.0,3.0,83,0.00,,,0.00,meteohub,2013-10-02 03:30:00,
2013-10-01 22:35:00,59.4,54.1,29.92,SW,226,0.0,2.0,83,0.00,,,0.00,meteohub,2013-10-02 03:35:00,
2013-10-01 22:40:00,59.2,54.0,29.92,SW,226,0.0,2.0,83,0.00,,,0.00,meteohub,2013-10-02 03:40:00,
2013-10-01 22:45:00,58.8,53.6,29.92,SW,226,0.0,0.0,83,0.00,,,0.00,meteohub,2013-10-02 03:45:00,
2013-10-01 22:50:00,58.5,53.2,29.93,SW,226,0.0,0.0,83,0.00,,,0.00,meteohub,2013-10-02 03:50:00,
2013-10-01 22:56:00,58.1,52.9,29.93,SW,226,0.0,0.0,83,0.00,,,0.00,meteohub,2013-10-02 03:56:00,
2013-10-01 23:01:00,57.7,52.7,29.93,SW,226,0.0,0.0,83,0.00,,,0.00,meteohub,2013-10-02 04:01:00,
2013-10-01 23:02:00,57.7,52.7,29.93,SW,226,0.0,0.0,83,0.00,,,0.00,meteohub,2013-10-02 04:02:00,
2013-10-01 23:03:00,57.7,52.7,29.93,SW,226,0.0,0.0,83,0.00,,,0.00,meteohub,2013-10-02 04:03:00,
2013-10-01 23:06:00,57.6,52.5,29.93,SW,226,0.0,0.0,83,0.00,,,0.00,meteohub,2013-10-02 04:06:00,
2013-10-01 23:09:00,57.4,52.5,29.93,SW,226,0.0,0.0,84,0.00,,,0.00,meteohub,2013-10-02 04:09:00,
2013-10-01 23:14:00,56.8,52.0,29.93,SW,226,0.0,0.0,84,0.00,,,0.00,meteohub,2013-10-02 04:14:00,
2013-10-01 23:19:00,56.7,51.8,29.93,SW,226,0.0,0.0,84,0.00,,,0.00,meteohub,2013-10-02 04:19:00,
2013-10-01 23:25:00,56.3,51.8,29.94,SW,226,0.0,0.0,85,0.00,,,0.00,meteohub,2013-10-02 04:25:00,
2013-10-01 23:30:00,55.9,51.4,29.94,SW,226,0.0,0.0,85,0.00,,,0.00,meteohub,2013-10-02 04:30:00,
2013-10-01 23:35:00,55.8,51.3,29.94,SW,226,0.0,0.0,85,0.00,,,0.00,meteohub,2013-10-02 04:35:00,
2013-10-01 23:40:00,55.2,50.7,29.94,SW,226,0.0,0.0,85,0.00,,,0.00,meteohub,2013-10-02 04:40:00,
2013-10-01 23:46:00,55.0,50.5,29.94,SW,226,0.0,0.0,85,0.00,,,0.00,meteohub,2013-10-02 04:46:00,
2013-10-01 23:51:00,54.7,50.2,29.94,SW,226,0.0,0.0,85,0.00,,,0.00,meteohub,2013-10-02 04:51:00,
2013-10-01 23:56:00,54.5,50.0,29.95,SW,226,0.0,0.0,85,0.00,,,0.00,meteohub,2013-10-02 04:56:00,